STARLINK-1360 (45588 NORAD) Tracking and Keplerian Element Data

This shows tracking and keplerian element data for the satellite.

Feedback or suggestion? Click here.




ElementValue
Catalog45588
NameSTARLINK-1360
Epoch Orbit626
Epoch Day149.16667824
Epoch Year2020
RAAN225.0372
Inclination52.9989
Eccentricity7.92E-05
Argument of Perigee43.8794
Mean Anonmoly116.8557
Mean Motion15.62660624
Decay Rate0.00021827
L11 45588U 20025BK 20149.16667824 .00021827 00000-0 24443-3 0 9995
L22 45588 52.9989 225.0372 0000792 43.8794 116.8557 15.62660624 6263

Live tracking and technical data element details for STARLINK-1360 (NORAD 45588). STARLINK-1360 can be tracked NOW for your location showing map with azimuth and elevation plus other details from your city location.

Track the satellite on the map from your city or location and see movement details for azimuth, elevation, latitude, longitude, range, height, and movement on the map or in text.







IsCatalogInMostPopularTable: catalog: 45588, numindb: 21
Update: records affected: 1



GetName: 45588 STARLINK-1360

Hit Count: updated at: Sat, 30 May 2020 14:33:14 GMT